YAOGAN-10

Last updated on Mon Sep 21 2026 00:02:45 GMT+0000 (Coordinated Universal Time)

1 36834U 10038A 26263.61489740 .00000632 00000+0 79292-4 0 9997 2 36834 97.8955 286.2589 0001582 88.2157 64.6159 14.85588330871378
UTC large
Height (km)
Speed (km/s)
/
Latitude / Longitude
Inclination (degrees)
Orbital Period (minutes)
Azimuth
Elevation
Range (km)
Doppler Factor

Next 0 passes for location: London (51.5072 / 0.1276)

No passes found over London.
YAOGAN-10